GW5010 Weather Reports


Display with metric or nautical units.
time (UTC)temp
F
wind
direction
speed
MPH
gust
MPH
rain 1hr
in
rain 24hr
in
rain mn
in
humidity
%
barometer
mb
20260507151612 56 104 0.0 5.0 0.00 0.00 0.00 46 1013.1
20260507151109 57 349 0.0 4.0 0.00 0.00 0.00 47 1013.3
20260507150606 57 214 3.0 5.0 0.00 0.00 0.00 49 1013.4
20260507145557 56 89 3.0 5.0 0.00 0.00 0.00 52 1013.4
20260507145056 57 246 1.0 3.0 0.00 0.00 0.00 44 1013.6
20260507144551 57 249 2.0 4.0 0.00 0.00 0.00 53 1013.5
20260507144050 57 343 1.0 3.0 0.00 0.00 0.00 52 1013.6
20260507143546 57 301 2.0 5.0 0.00 0.00 0.00 50 1013.5
20260507143039 57 181 2.0 9.0 0.00 0.00 0.00 47 1013.7
20260507142533 57 312 1.0 4.0 0.00 0.00 0.00 52 1013.6
20260507142031 55 87 3.0 6.0 0.00 0.00 0.00 47 1013.7
20260507141527 55 82 3.0 8.0 0.00 0.00 0.00 46 1013.8
20260507141023 56 37 4.0 8.0 0.00 0.00 0.00 52 1013.9
20260507140520 55 111 4.0 7.0 0.00 0.00 0.00 47 1014.1
20260507140018 56 349 2.0 8.0 0.00 0.00 0.00 50 1013.9
20260507135514 55 216 2.0 5.0 0.00 0.00 0.00 51 1014.2
20260507135012 55 226 3.0 5.0 0.00 0.00 0.00 54 1014.3
20260507134508 55 279 2.0 5.0 0.00 0.00 0.00 58 1014.0
20260507134004 54 333 3.0 7.0 0.00 0.00 0.00 58 1014.2
20260507133500 53 231 3.0 4.0 0.00 0.00 0.00 61 1014.2
20260507132959 51 326 1.0 6.0 0.00 0.00 0.00 55 1014.2
20260507132455 52 253 3.0 5.0 0.00 0.00 0.00 66 1014.1
20260507131951 52 254 1.0 4.0 0.00 0.00 0.00 60 1014.1
20260507131448 52 179 1.0 4.0 0.00 0.00 0.00 65 1014.1
20260507130945 51 240 3.0 5.0 0.00 0.00 0.00 56 1014.2
20260507130442 51 198 0.0 5.0 0.00 0.00 0.00 64 1014.3
20260507125941 51 76 0.0 3.0 0.00 0.00 0.00 63 1014.1
20260507125438 51 277 2.0 3.0 0.00 0.00 0.00 67 1014.3
20260507124935 51 222 1.0 5.0 0.00 0.00 0.00 69 1014.4
20260507124432 51 215 2.0 5.0 0.00 0.00 0.00 64 1014.2
20260507123930 51 210 3.0 5.0 0.00 0.00 0.00 66 1014.4
20260507123427 51 14 4.0 5.0 0.00 0.00 0.00 57 1014.1
20260507122923 51 212 0.0 5.0 0.00 0.00 0.00 63 1014.2
20260507122418 51 128 0.0 5.0 0.00 0.00 0.00 61 1014.2
20260507121915 51 201 1.0 4.0 0.00 0.00 0.00 69 1014.1
20260507121416 50 223 3.0 5.0 0.00 0.00 0.00 67 1014.0
20260507120913 50 335 1.0 3.0 0.00 0.00 0.00 63 1014.0
20260507120409 50 232 2.0 5.0 0.00 0.00 0.00 64 1014.0
20260507115905 50 228 2.0 3.0 0.00 0.00 0.00 64 1013.9
20260507115401 50 264 2.0 3.0 0.00 0.00 0.00 69 1014.0
20260507114857 50 278 1.0 3.0 0.00 0.00 0.00 71 1013.9
20260507114355 50 277 1.0 3.0 0.00 0.00 0.00 65 1014.0
20260507113852 50 240 1.0 2.0 0.00 0.00 0.00 68 1014.1
20260507113349 50 215 0.0 3.0 0.00 0.00 0.00 68 1013.8
20260507112846 50 228 1.0 4.0 0.00 0.00 0.00 61 1014.0
20260507112343 49 203 1.0 3.0 0.00 0.00 0.00 66 1014.2
20260507111841 50 231 0.0 4.0 0.00 0.00 0.00 68 1014.2
20260507111338 49 227 0.0 3.0 0.00 0.00 0.00 65 1014.0
20260507110833 49 349 1.0 2.0 0.00 0.00 0.00 66 1014.0
20260507110330 49 216 2.0 2.0 0.00 0.00 0.00 73 1013.9
20260507105827 49 216 1.0 2.0 0.00 0.00 0.00 69 1013.8
20260507105323 49 202 2.0 4.0 0.00 0.00 0.00 66 1013.6
20260507104820 49 241 2.0 3.0 0.00 0.00 0.00 70 1013.6
20260507104317 49 257 1.0 3.0 0.00 0.00 0.00 69 1013.4
20260507103813 49 235 4.0 5.0 0.00 0.00 0.00 65 1013.5
20260507103309 49 249 2.0 3.0 0.00 0.00 0.00 70 1013.2
20260507102806 49 357 1.0 3.0 0.00 0.00 0.00 68 1013.1
20260507102306 49 57 1.0 1.0 0.00 0.00 0.00 68 1013.6
20260507101759 49 310 0.0 3.0 0.00 0.00 0.00 75 1013.7
20260507101254 50 274 0.0 3.0 0.00 0.00 0.00 70 1013.2
20260507100751 50 252 0.0 3.0 0.00 0.00 0.00 65 1013.5
20260507100250 50 249 0.0 2.0 0.00 0.00 0.00 68 1013.1
20260507095747 50 214 2.0 3.0 0.00 0.00 0.00 67 1013.3
20260507095243 50 259 1.0 3.0 0.00 0.00 0.00 67 1012.8
20260507094741 50 244 1.0 3.0 0.00 0.00 0.00 68 1013.0
20260507094238 50 241 2.0 5.0 0.00 0.00 0.00 71 1012.7
20260507093734 50 104 2.0 5.0 0.00 0.00 0.00 68 1012.8
20260507093233 50 238 1.0 2.0 0.00 0.00 0.00 69 1012.8
20260507092730 50 246 1.0 3.0 0.00 0.00 0.00 69 1012.9
20260507092226 50 269 2.0 3.0 0.00 0.00 0.00 67 1012.8
20260507091723 50 177 1.0 3.0 0.00 0.00 0.00 67 1013.2
20260507091219 50 217 3.0 4.0 0.00 0.00 0.00 68 1012.8
20260507090719 50 144 1.0 3.0 0.00 0.00 0.00 71 1012.9
20260507090216 50 27 0.0 6.0 0.00 0.00 0.00 69 1012.9
20260507085713 50 221 1.0 3.0 0.00 0.00 0.00 71 1012.9
20260507085210 50 244 3.0 4.0 0.00 0.00 0.00 75 1012.9
20260507084707 51 189 1.0 4.0 0.00 0.00 0.00 77 1013.1
20260507084203 51 244 3.0 6.0 0.00 0.00 0.00 74 1012.8
20260507083701 51 237 3.0 3.0 0.00 0.00 0.00 78 1012.9
20260507083157 51 151 1.0 3.0 0.00 0.00 0.00 76 1013.0
20260507082653 51 236 2.0 4.0 0.00 0.00 0.00 79 1012.8
20260507082149 51 266 3.0 4.0 0.00 0.00 0.00 79 1012.8
20260507081646 51 236 4.0 5.0 0.00 0.00 0.00 83 1012.7
20260507081143 51 229 0.0 2.0 0.00 0.00 0.00 84 1012.6
20260507080639 51 248 2.0 4.0 0.00 0.00 0.00 85 1012.5
20260507080137 51 243 1.0 5.0 0.00 0.00 0.00 83 1012.4
20260507075636 52 243 3.0 4.0 0.00 0.00 0.00 85 1012.4
20260507075133 51 215 1.0 3.0 0.00 0.00 0.00 82 1012.1
20260507074630 51 120 0.0 5.0 0.00 0.00 0.00 82 1012.3
20260507074128 52 126 3.0 3.0 0.00 0.00 0.00 82 1012.2
20260507073624 52 320 0.0 4.0 0.00 0.00 0.00 83 1012.3
20260507073121 52 178 0.0 4.0 0.00 0.00 0.00 82 1012.4
20260507072618 52 92 0.0 2.0 0.00 0.00 0.00 82 1012.1
20260507072115 52 224 0.0 4.0 0.00 0.00 0.00 84 1012.2
20260507071613 52 44 0.0 2.0 0.00 0.00 0.00 85 1012.2
20260507071109 52 233 3.0 4.0 0.00 0.00 0.00 84 1012.4
20260507070606 52 186 0.0 8.0 0.00 0.00 0.00 84 1012.4
20260507070103 52 257 0.0 3.0 0.00 0.00 0.00 85 1012.6
20260507065600 51 233 1.0 2.0 0.00 0.00 0.00 88 1012.6
20260507065057 51 218 1.0 3.0 0.00 0.00 0.00 87 1012.5
20260507064555 51 212 2.0 5.0 0.00 0.00 0.00 90 1012.5
20260507064053 51 237 2.0 4.0 0.00 0.00 0.00 90 1012.7
20260507063550 51 248 2.0 4.0 0.00 0.00 0.00 90 1012.6
20260507063047 51 217 3.0 3.0 0.00 0.00 0.00 88 1012.5
20260507062543 52 233 3.0 4.0 0.00 0.00 0.00 88 1012.8
20260507062041 52 251 1.0 3.0 0.00 0.00 0.00 85 1012.9
20260507061539 53 227 3.0 4.0 0.00 0.00 0.00 87 1012.9
20260507061037 53 212 0.0 3.0 0.00 0.00 0.00 86 1012.7
20260507060534 53 281 2.0 3.0 0.00 0.00 0.00 86 1012.8
20260507060031 53 249 2.0 3.0 0.00 0.00 0.00 83 1012.9
20260507055525 53 272 2.0 4.0 0.00 0.00 0.00 83 1012.7
20260507055022 53 284 1.0 3.0 0.00 0.00 0.00 85 1012.7
20260507054518 53 218 1.0 2.0 0.00 0.00 0.00 84 1012.9
20260507054015 53 147 0.0 3.0 0.00 0.00 0.00 83 1012.7
20260507053513 53 191 1.0 6.0 0.00 0.00 0.00 83 1012.4
20260507053011 53 119 0.0 3.0 0.00 0.00 0.00 85 1012.5
20260507052509 53 251 1.0 3.0 0.00 0.00 0.00 84 1012.5
20260507052005 53 252 2.0 3.0 0.00 0.00 0.00 84 1012.6
20260507051503 53 190 1.0 3.0 0.00 0.00 0.00 84 1012.5
20260507050959 53 237 1.0 2.0 0.00 0.00 0.00 85 1012.8
20260507050456 53 60 2.0 4.0 0.00 0.00 0.00 83 1012.7
20260507045953 53 112 1.0 2.0 0.00 0.00 0.00 84 1012.6
20260507045449 53 269 2.0 6.0 0.00 0.00 0.00 83 1012.6
20260507044947 53 223 1.0 3.0 0.00 0.00 0.00 83 1012.3
20260507044443 53 241 4.0 5.0 0.00 0.00 0.00 82 1012.3
20260507043939 53 235 2.0 5.0 0.00 0.00 0.00 85 1012.3
20260507043436 53 271 4.0 5.0 0.00 0.00 0.00 85 1012.2
20260507042932 53 352 0.0 3.0 0.00 0.00 0.00 86 1012.3
20260507042429 53 239 3.0 3.0 0.00 0.00 0.00 85 1012.3
20260507041925 53 259 2.0 4.0 0.00 0.00 0.00 84 1012.3
20260507041422 54 218 1.0 6.0 0.00 0.00 0.00 85 1012.9
20260507040919 53 251 5.0 6.0 0.00 0.00 0.00 85 1012.7
20260507040415 54 256 3.0 5.0 0.00 0.00 0.00 88 1012.7
20260507035911 54 258 4.0 6.0 0.00 0.15 0.15 88 1012.6
20260507035407 54 256 4.0 5.0 0.00 0.15 0.15 88 1012.7
20260507034904 54 335 1.0 4.0 0.00 0.15 0.15 87 1012.5
20260507034401 54 273 3.0 5.0 0.00 0.15 0.15 89 1012.5
20260507033859 54 269 0.0 3.0 0.00 0.15 0.15 88 1012.7
20260507033357 54 181 1.0 5.0 0.00 0.15 0.15 87 1012.4
20260507032853 54 291 3.0 5.0 0.00 0.15 0.15 87 1012.6
20260507032350 54 229 0.0 6.0 0.00 0.15 0.15 87 1012.3
20260507031846 54 300 2.0 5.0 0.00 0.15 0.15 89 1012.6
20260507031343 55 209 2.0 6.0 0.00 0.15 0.15 90 1012.4
20260507030840 55 224 2.0 4.0 0.00 0.15 0.15 89 1012.5
20260507030337 55 221 2.0 5.0 0.00 0.15 0.15 88 1012.3
20260507025834 55 253 3.0 5.0 0.00 0.15 0.15 88 1012.5
20260507025332 55 273 3.0 6.0 0.00 0.15 0.15 88 1012.3
20260507024829 55 253 3.0 5.0 0.00 0.15 0.15 87 1012.3
20260507024326 55 232 2.0 4.0 0.00 0.15 0.15 87 1012.0
20260507023822 56 246 0.0 4.0 0.00 0.15 0.15 89 1011.9
20260507023319 56 111 1.0 2.0 0.00 0.15 0.15 87 1012.2
20260507022816 56 212 0.0 6.0 0.00 0.15 0.15 88 1011.9
20260507022312 56 198 2.0 4.0 0.00 0.15 0.15 86 1011.8
20260507021809 57 303 0.0 3.0 0.00 0.15 0.15 87 1012.1
20260507021304 56 297 3.0 5.0 0.00 0.15 0.15 86 1011.9
20260507020802 57 215 1.0 6.0 0.00 0.15 0.15 87 1012.1
20260507020259 57 129 0.0 3.0 0.00 0.15 0.15 88 1011.7
20260507015756 57 159 0.0 3.0 0.00 0.15 0.15 86 1012.1
20260507015253 57 257 1.0 3.0 0.00 0.15 0.15 88 1011.8
20260507014750 57 324 0.0 3.0 0.00 0.15 0.15 87 1011.9
20260507014246 57 186 0.0 2.0 0.00 0.15 0.15 89 1011.8
20260507013743 57 65 2.0 9.0 0.00 0.15 0.15 87 1012.0
20260507013241 57 95 2.0 5.0 0.00 0.15 0.15 89 1011.8
20260507012738 57 227 1.0 5.0 0.00 0.15 0.15 88 1011.5
20260507012233 57 335 0.0 2.0 0.00 0.15 0.15 89 1011.8
20260507011731 57 239 0.0 3.0 0.00 0.15 0.15 89 1011.5
20260507011228 57 254 2.0 4.0 0.00 0.15 0.15 89 1011.6
20260507010727 57 238 1.0 4.0 0.00 0.15 0.15 89 1011.4
20260507010223 58 261 4.0 4.0 0.00 0.15 0.15 90 1011.6
20260507005721 58 207 2.0 5.0 0.00 0.15 0.15 87 1011.9
20260507005217 58 252 5.0 6.0 0.00 0.15 0.15 88 1011.8
20260507004714 58 266 4.0 6.0 0.00 0.15 0.15 88 1012.3
20260507004212 58 235 4.0 9.0 0.00 0.15 0.15 91 1011.7
20260507003707 58 283 4.0 5.0 0.00 0.15 0.15 93 1012.2
20260507003203 58 257 2.0 3.0 0.00 0.15 0.15 90 1011.7
20260507002659 59 241 1.0 3.0 0.00 0.15 0.15 91 1011.7
20260507002155 59 242 2.0 3.0 0.00 0.15 0.15 91 1011.7
20260507001652 59 227 2.0 4.0 0.00 0.15 0.15 92 1011.7
20260507001150 59 241 3.0 5.0 0.00 0.15 0.15 92 1011.5
20260507000646 59 262 3.0 7.0 0.00 0.15 0.15 92 1011.6
20260507000141 59 230 3.0 7.0 0.00 0.15 0.15 93 1011.3
20260506235639 59 337 1.0 5.0 0.00 0.15 0.15 92 1011.1
20260506235139 59 252 3.0 6.0 0.00 0.15 0.15 94 1011.3
20260506234636 60 219 2.0 5.0 0.00 0.15 0.15 94 1011.1
20260506234133 60 295 5.0 7.0 0.00 0.15 0.15 95 1010.9
20260506233630 60 253 0.0 4.0 0.00 0.15 0.15 97 1011.0
20260506233127 60 264 2.0 4.0 0.00 0.15 0.15 97 1010.7
20260506232623 60 198 2.0 5.0 0.00 0.15 0.15 97 1010.3
20260506232119 61 231 4.0 5.0 0.00 0.15 0.15 97 1010.3
20260506231616 61 230 2.0 4.0 0.00 0.15 0.15 97 1010.3
20260506231115 61 231 2.0 4.0 0.00 0.15 0.15 97 1010.2
20260506230611 61 233 4.0 7.0 0.00 0.15 0.15 96 1010.2
20260506230108 61 254 3.0 6.0 0.00 0.15 0.15 95 1010.2
20260506225604 61 251 3.0 4.0 0.00 0.15 0.15 95 1010.3
20260506225101 61 245 4.0 5.0 0.00 0.15 0.15 95 1010.2
20260506224558 62 234 3.0 5.0 0.00 0.15 0.15 95 1010.4
20260506224054 62 233 3.0 5.0 0.00 0.15 0.15 95 1010.1
20260506223550 62 264 3.0 5.0 0.00 0.15 0.15 95 1010.0
20260506223047 62 267 3.0 5.0 0.00 0.15 0.15 95 1010.0
20260506222544 62 266 3.0 4.0 0.00 0.15 0.15 96 1010.0
20260506222040 63 267 2.0 3.0 0.00 0.15 0.15 97 1009.8
20260506221538 63 242 2.0 4.0 0.00 0.15 0.15 97 1009.9
20260506221036 63 229 1.0 3.0 0.00 0.15 0.15 98 1010.0
20260506220531 63 244 1.0 2.0 0.00 0.15 0.15 98 1010.0
20260506220027 63 244 2.0 2.0 0.00 0.15 0.15 98 1009.9
20260506215524 63 266 0.0 2.0 0.00 0.15 0.15 98 1009.9
20260506215020 64 267 0.0 1.0 0.00 0.15 0.15 97 1009.7
20260506214517 64 293 0.0 1.0 0.00 0.15 0.15 97 1009.6
20260506214014 64 256 0.0 2.0 0.00 0.15 0.15 97 1009.7
20260506213513 64 252 1.0 2.0 0.00 0.15 0.15 97 1009.8
20260506213009 64 233 0.0 1.0 0.00 0.15 0.15 96 1009.6
20260506212505 64 309 0.0 1.0 0.00 0.15 0.15 96 1009.5
20260506212000 64 30 0.0 1.0 0.00 0.15 0.15 96 1009.4
20260506211456 64 235 0.0 0.0 0.00 0.15 0.15 95 1009.5
20260506210954 64 124 0.0 0.0 0.00 0.15 0.15 95 1009.3
20260506210450 65 309 0.0 2.0 0.00 0.15 0.15 95 1009.2
20260506205947 65 150 0.0 2.0 0.00 0.15 0.15 93 1009.0
20260506205443 65 93 2.0 3.0 0.00 0.15 0.15 93 1009.0
20260506204940 65 14 0.0 2.0 0.00 0.15 0.15 93 1008.8
20260506204438 64 76 0.0 3.0 0.00 0.15 0.15 95 1008.7
20260506203935 64 235 2.0 3.0 0.00 0.15 0.15 95 1009.0
20260506203432 64 100 1.0 3.0 0.00 0.15 0.15 95 1008.8
20260506202929 64 130 0.0 4.0 0.00 0.15 0.15 95 1008.9
20260506202426 64 138 2.0 4.0 0.00 0.15 0.15 95 1008.9
20260506201922 64 129 3.0 4.0 0.00 0.15 0.15 96 1008.8
20260506201420 64 74 2.0 3.0 0.00 0.15 0.15 96 1009.0
20260506200916 64 98 0.0 3.0 0.00 0.15 0.15 96 1008.9
20260506200412 63 93 0.0 4.0 0.00 0.15 0.15 96 1008.8
20260506195909 63 156 2.0 3.0 0.00 0.15 0.15 97 1008.6
20260506195407 63 161 1.0 2.0 0.00 0.15 0.15 97 1009.0
20260506194903 63 134 1.0 3.0 0.00 0.15 0.15 96 1009.0
20260506194400 63 132 2.0 3.0 0.00 0.15 0.15 96 1008.9
20260506193857 63 141 0.0 3.0 0.00 0.15 0.15 96 1009.0
20260506193354 63 161 0.0 3.0 0.00 0.15 0.15 96 1008.8
20260506192850 63 146 0.0 3.0 0.00 0.15 0.15 96 1008.9
20260506192347 64 145 2.0 3.0 0.00 0.15 0.15 95 1009.1
20260506191844 64 68 3.0 3.0 0.00 0.15 0.15 95 1009.1
20260506191340 64 81 3.0 3.0 0.00 0.15 0.15 94 1008.9
20260506190837 64 89 0.0 4.0 0.00 0.15 0.15 94 1009.3
20260506190334 64 113 0.0 2.0 0.00 0.15 0.15 94 1009.3
20260506185831 64 103 0.0 0.0 0.00 0.15 0.15 93 1009.1
20260506185328 64 103 0.0 3.0 0.00 0.15 0.15 94 1009.2
20260506184825 64 129 0.0 2.0 0.00 0.15 0.15 94 1009.4
20260506184322 64 89 0.0 1.0 0.00 0.15 0.15 95 1009.3
20260506183819 64 230 0.0 2.0 0.00 0.15 0.15 94 1009.2
20260506183314 64 236 0.0 1.0 0.00 0.15 0.15 94 1009.4
20260506182812 64 217 0.0 0.0 0.02 0.15 0.15 94 1009.4
20260506182309 63 347 1.0 3.0 0.02 0.15 0.15 95 1009.3
20260506181807 63 235 0.0 1.0 0.00 0.15 0.15 95 1009.4
20260506181304 63 230 0.0 1.0 0.00 0.15 0.15 95 1009.5
20260506180801 63 50 0.0 7.0 0.00 0.15 0.15 95 1009.3
20260506180257 63 107 0.0 8.0 0.00 0.15 0.15 94 1009.7
20260506175753 63 36 1.0 2.0 0.02 0.15 0.15 95 1009.3
20260506175250 63 123 1.0 3.0 0.02 0.15 0.15 94 1009.3
20260506174748 63 228 0.0 2.0 0.00 0.14 0.14 93 1009.5
20260506174245 64 296 0.0 3.0 0.00 0.14 0.14 93 1009.5
20260506173743 64 226 0.0 2.0 0.00 0.14 0.14 90 1009.4
20260506173239 64 230 0.0 2.0 0.00 0.14 0.14 90 1009.2
20260506172736 64 230 0.0 4.0 0.00 0.14 0.14 89 1009.3
20260506172232 65 217 0.0 3.0 0.00 0.14 0.14 88 1009.3
20260506171730 65 142 0.0 6.0 0.00 0.14 0.14 88 1009.2
20260506171227 65 174 0.0 4.0 0.00 0.14 0.14 87 1009.4
20260506170725 65 228 1.0 5.0 0.00 0.14 0.14 86 1009.1
20260506170221 66 131 2.0 8.0 0.00 0.14 0.14 86 1009.1
20260506165720 66 160 2.0 4.0 0.00 0.14 0.14 87 1009.1
20260506165216 65 230 1.0 7.0 0.00 0.14 0.14 86 1009.2
20260506164714 65 30 3.0 6.0 0.00 0.14 0.14 88 1009.2
20260506164211 65 307 2.0 3.0 0.00 0.14 0.14 88 1009.1
20260506163707 65 246 0.0 2.0 0.00 0.14 0.14 88 1009.1
20260506163202 66 246 2.0 2.0 0.00 0.14 0.14 88 1009.1
20260506162658 65 232 0.0 4.0 0.00 0.14 0.14 87 1009.1
20260506162156 66 319 1.0 4.0 0.00 0.14 0.14 89 1009.3
20260506161653 65 352 0.0 3.0 0.00 0.14 0.14 90 1009.3
20260506161150 65 348 1.0 4.0 0.00 0.14 0.14 90 1009.2
20260506160648 64 276 3.0 3.0 0.00 0.14 0.14 90 1009.1
20260506160144 64 253 0.0 9.0 0.00 0.14 0.14 90 1008.9
20260506155643 63 70 2.0 5.0 0.00 0.14 0.14 91 1009.0
20260506155140 62 145 6.0 10.0 0.00 0.14 0.14 92 1009.1
20260506153241 63 217 0.0 4.0 0.00 0.14 0.14 93 1009.2
20260506152738 62 230 0.0 3.0 0.02 0.14 0.14 93 1009.0
20260506152236 62 100 1.0 12.0 0.02 0.14 0.14 94 1009.0